CAPE
0 0 0 4 0 0 0 0 0 0 0 0 0 0 0 0 0 0 0 0 0 0 0 0 0 0 0 0 1502 1716 1596 1496 1700 1399 1028 1374 1102 1200 1143 899 802 748 495 342
0 0 0 14 3 0 1 5 1 2 0 0 0 0 0 0 0 0 0 0 0 0 0 0 0 0 0 0 29 1780 1768 1629 1838 1581 1308 1492 1145 1334 1033 1256 1034 997 603 461
0 0 0 1 18 10 11 19 19 16 3 0 0 2 0 0 0 0 0 0 0 0 0 0 0 0 0 0 135 1847 1807 1867 1900 1754 1741 1325 1448 1257 1286 1271 1319 1216 783 675
0 0 1 1 20 28 29 24 24 7 19 35 9 16 0 0 0 0 0 0 0 0 0 0 0 0 0 19 83 236 2125 2009 1940 1958 1767 1589 1504 1114 1423 1195 1349 1307 1028 797
0 6 10 19 8 14 19 83 44 47 33 25 1 21 0 0 0 0 0 0 0 0 0 0 0 0 0 0 0 144 2212 2338 2038 2002 1833 1793 1543 1694 1553 1349 1219 1552 1429 1074
5 0 26 32 25 31 57 45 55 95 102 75 3 26 0 27 97 103 86 71 58 41 46 18 0 0 0 0 0 13 2118 2344 2278 2080 1972 1704 1717 1620 1524 1552 1615 1630 1470 1532
0 13 16 0 0 3 21 59 73 33 123 60 14 13 41 2 0 0 4 15 42 23 0 0 1 2 0 0 0 0 2306 2128 2562 2241 2008 1807 1874 1779 1760 1575 1652 1521 1358 1334
3 0 17 0 0 0 20 118 101 47 84 1 1 2 11 0 0 0 0 0 2 2 0 0 0 0 0 0 0 0 2024 2123 2502 2366 1960 1745 1801 2093 1830 1935 1674 1514 1231 1132
5 0 0 0 0 2 47 89 47 96 58 42 0 6 19 0 0 0 0 0 0 9 0 0 0 0 0 0 0 9 22 2173 2177 2333 2321 1993 1683 2225 2185 2040 1832 1549 1392 1163
0 11 0 0 0 0 36 53 48 135 25 27 2 12 4 0 7 9 18 38 28 3 0 0 0 0 0 0 0 0 14 189 2009 2116 2464 2449 2326 2047 2451 2108 1921 1580 1380 1339
13 36 1 0 0 2 1 74 24 57 66 43 15 0 27 0 62 53 23 79 96 13 4 1 1 0 0 0 0 5 8 30 1822 2325 2271 2366 2289 2440 2322 2419 2009 1689 1467 1372
31 40 13 5 0 1 26 3 6 19 2 2 9 0 9 0 70 116 29 5 34 10 5 5 1 0 0 0 44 8 116 278 1030 2460 2189 2619 2733 2579 2381 2346 2257 2084 1821 1504
7 11 39 2 0 4 6 22 63 31 27 9 40 3 0 0 63 136 53 22 9 13 5 9 4 7 9 0 1 0 0 0 13 597 2318 2297 2658 2587 2581 2430 2283 2228 2146 1828
8 37 51 67 33 43 11 10 10 23 30 13 22 1 0 0 66 45 4 0 14 14 8 5 16 14 14 4 4 0 0 0 0 3 250 1612 2425 2533 2729 2651 2534 2401 2414 2183
17 25 33 1 9 4 7 10 8 11 26 17 0 0 0 12 8 94 1 2 28 19 5 4 13 21 17 3 6 9 1 0 0 1 4 86 110 1828 2701 2868 2828 2705 2514 2459
5 1 23 0 7 10 13 19 41 15 8 4 1 0 9 93 21 14 1 18 14 4 25 2 9 17 27 8 4 4 3 0 0 0 0 0 3 0 1500 2539 2451 2495 2610 2502
9 35 43 11 10 19 11 8 5 2 19 24 6 57 5 13 2 16 4 47 9 9 12 29 21 21 23 17 5 3 3 0 0 1 0 1 0 7 2 0 1938 2230 2786 2900
3 15 54 35 16 36 32 2 61 1 39 14 27 32 8 9 22 1 26 27 22 16 1 10 42 40 21 31 20 3 0 0 1 0 0 1 4 5 11 7 2 622 2431 2699
15 58 33 28 24 8 9 18 15 25 16 4 32 23 13 58 20 1 3 12 9 12 13 2 3 61 71 52 59 17 0 0 0 0 1 0 3 4 5 9 12 6 2 1509
13 30 50 70 24 15 29 3 28 11 72 1 26 18 27 4 1 11 4 17 3 1 0 0 0 0 14 1 0 0 12 0 0 0 0 0 0 3 7 2 8 10 5 3
1 54 49 65 33 20 55 11 0 33 5 13 46 68 57 63 15 3 0 4 9 0 0 0 0 0 0 0 0 2 3 6 0 0 0 0 0 0 0 5 0 3 5 1
29 57 88 74 23 11 1 8 56 147 98 96 56 130 132 58 25 1 0 0 2 0 0 0 0 0 0 0 0 0 0 1 0 0 0 0 0 2 0 3 2 0 2 2
41 66 90 49 32 38 18 62 71 51 150 139 40 10 68 85 19 2 1 5 16 0 0 0 0 0 0 0 0 0 0 0 0 0 0 0 0 2 0 2 5 2 0 0
9 16 69 62 1 27 88 15 69 101 108 63 64 10 25 29 8 8 6 4 4 0 0 0 0 0 0 0 0 0 0 0 0 3 1 1 1 0 0 1 1 1 1 0
7 9 4 21 3 1 15 15 0 24 16 45 54 22 9 15 17 17 9 3 4 0 0 0 0 0 0 0 0 0 0 0 0 1 1 6 1 2 0 3 1 2 0 0
0 4 28 26 10 67 15 31 24 22 40 22 17 12 5 7 8 4 3 3 1 0 0 0 0 0 0 0 0 0 0 1 0 2 1 3 0 5 7 3 0 0 0 0
CIN
-0 -0 -0 -1 -0 -0 -0 -0 -0 -0 -0 -0 -0 -0 -0 -0 -0 -0 -0 -0 -0 -0 -0 -0 -0 -0 -0 -0 -54 -83 -95 -72 -45 -41 -42 -16 -43 -56 -45 -96 -133 -218 -219 -222
-0 -0 -0 -1 -1 -0 -0 -0 -0 -0 -0 -0 -0 -0 -0 -0 -0 -0 -0 -0 -0 -0 -0 -0 -0 -0 -0 -0 -83 -64 -85 -93 -44 -53 -70 -17 -60 -39 -66 -26 -70 -137 -208 -192
-0 -0 -0 -0 -0 -0 -0 -1 -0 -0 -2 -0 -0 -0 -0 -0 -0 -0 -0 -0 -0 -0 -0 -0 -0 -0 -0 -0 -117 -38 -69 -83 -53 -53 -16 -19 -9 -10 -8 -8 -16 -64 -187 -185
-0 -0 -0 -0 -0 -0 -1 -1 -2 -1 -0 -0 -2 -0 -1 -0 -0 -0 -0 -0 -0 -0 -0 -0 -0 -0 -0 -59 -105 -79 -50 -66 -60 -34 -28 -29 -17 -41 -24 -65 -34 -58 -157 -183
-0 -0 -1 -0 -0 -3 -0 -2 -8 -1 -0 -0 -0 -0 -0 -0 -0 -0 -0 -0 -0 -0 -0 -0 -0 -0 -0 -0 -0 -102 -37 -50 -61 -47 -29 -28 -19 -13 -40 -48 -51 -25 -57 -141
-1 -0 -8 -2 -4 -2 -2 -14 -41 -21 -1 -0 -10 -0 -0 -5 -19 -22 -49 -88 -132 -123 -153 -164 -0 -0 -0 -0 -0 -138 -42 -35 -55 -61 -49 -29 -27 -25 -41 -28 -30 -38 -69 -67
-0 -0 -12 -0 -0 -1 -0 -19 -0 -1 -0 -0 -5 -9 -27 -76 -0 -0 -62 -79 -118 -176 -0 -0 -54 -129 -0 -0 -0 -0 -24 -34 -52 -70 -61 -33 -20 -28 -43 -56 -68 -90 -102 -109
-0 -0 -1 -0 -0 -0 -3 -0 -0 -0 -0 -0 -0 -4 -0 -0 -0 -0 -0 -0 -162 -224 -0 -0 -0 -0 -0 -0 -0 -0 -7 -32 -37 -63 -61 -69 -28 -11 -21 -27 -70 -120 -183 -217
-0 -0 -0 -0 -0 -6 -6 -0 -1 -0 -0 -0 -0 -1 -67 -0 -0 -0 -0 -0 -0 -138 -0 -0 -0 -0 -0 -0 -0 -216 -10 -16 -32 -40 -37 -50 -64 -6 -17 -18 -60 -140 -180 -221
-0 -0 -0 -0 -0 -0 -6 -1 -7 -1 -1 -0 -3 -16 -0 -0 -2 -0 -2 -6 -14 -0 -0 -0 -0 -0 -0 -0 -0 -0 -124 -3 -16 -34 -34 -21 -22 -17 -9 -16 -42 -110 -185 -201
-0 -1 -0 -0 -0 -0 -0 -0 -3 -0 -0 -0 -0 -0 -7 -0 -0 -0 -23 -2 -0 -0 -0 -0 -0 -0 -0 -0 -0 -77 -117 -66 -15 -29 -27 -34 -15 -9 -13 -7 -17 -73 -146 -180
-7 -1 -0 -0 -0 -0 -1 -14 -0 -2 -0 -0 -0 -0 -2 -0 -1 -0 -3 -4 -6 -0 -0 -0 -0 -0 -0 -0 -68 -153 -174 -130 -34 -29 -30 -17 -15 -9 -7 -7 -13 -29 -92 -151
-2 -1 -0 -0 -0 -9 -0 -1 -7 -1 -0 -0 -0 -0 -0 -0 -5 -3 -4 -1 -0 -0 -0 -0 -0 -0 -0 -0 -0 -0 -0 -0 -300 -149 -33 -38 -20 -19 -7 -5 -7 -23 -35 -75
-1 -0 -0 -0 -0 -0 -2 -10 -15 -16 -0 -0 -0 -0 -0 -0 -12 -26 -1 -2 -0 -0 -0 -0 -0 -0 -0 -0 -0 -0 -0 -0 -0 -207 -199 -54 -26 -22 -10 -12 -3 -4 -25 -40
-1 -1 -2 -4 -0 -1 -0 -4 -0 -9 -10 -6 -0 -0 -0 -2 -52 -0 -1 -0 -0 -0 -0 -0 -0 -0 -0 -0 -0 -0 -0 -0 -0 -0 -23 -245 -165 -28 -14 -3 -3 -2 -5 -21
-1 -4 -1 -3 -0 -1 -1 -0 -1 -2 -0 -1 -0 -0 -6 -15 -3 -24 -0 -0 -0 -0 -0 -0 -0 -0 -0 -0 -0 -0 -0 -0 -0 -0 -0 -0 -0 -0 -27 -9 -11 -7 -4 -6
-0 -0 -0 -0 -0 -1 -0 -4 -0 -1 -2 -0 -0 -19 -32 -10 -0 -34 -0 -0 -0 -0 -0 -0 -0 -0 -0 -0 -1 -0 -0 -0 -0 -0 -0 -0 -0 -0 -0 -0 -10 -9 -6 -4
-0 -0 -0 -0 -0 -1 -1 -0 -1 -1 -4 -4 -8 -3 -6 -2 -0 -3 -0 -0 -0 -0 -0 -0 -10 -2 -12 -17 -4 -4 -0 -0 -0 -0 -0 -0 -0 -0 -0 -0 -0 -52 -9 -12
-0 -0 -0 -0 -0 -0 -8 -14 -28 -24 -8 -12 -1 -6 -1 -1 -0 -0 -0 -0 -0 -0 -5 -5 -1 -18 -13 -7 -2 -0 -5 -0 -0 -0 -0 -0 -0 -0 -0 -0 -0 -0 -35 -21
-0 -1 -0 -0 -0 -0 -12 -3 -28 -1 -2 -20 -8 -1 -0 -3 -0 -0 -0 -0 -0 -0 -0 -0 -0 -0 -11 -11 -0 -1 -38 -4 -0 -0 -0 -0 -0 -0 -0 -0 -0 -0 -0 -0
-11 -0 -0 -0 -1 -3 -10 -11 -0 -4 -0 -33 -2 -3 -1 -1 -0 -0 -0 -0 -0 -0 -0 -0 -0 -0 -0 -0 -0 -1 -0 -0 -0 -0 -0 -0 -0 -0 -0 -0 -0 -0 -0 -0
-0 -0 -0 -1 -0 -1 -11 -11 -2 -0 -0 -3 -9 -0 -0 -1 -2 -3 -0 -0 -1 -0 -0 -0 -0 -0 -0 -0 -0 -0 -0 -0 -0 -0 -0 -0 -0 -1 -0 -0 -0 -0 -0 -0
-0 -0 -0 -5 -0 -8 -13 -1 -0 -2 -0 -2 -1 -2 -1 -1 -0 -1 -2 -1 -0 -0 -0 -0 -0 -0 -0 -0 -0 -0 -0 -0 -0 -0 -0 -0 -0 -1 -0 -0 -0 -0 -0 -0
-1 -0 -2 -0 -0 -0 -0 -0 -1 -20 -0 -1 -3 -15 -11 -12 -9 -0 -0 -1 -1 -0 -0 -0 -0 -0 -0 -0 -0 -0 -0 -0 -0 -0 -0 -0 -0 -0 -0 -0 -0 -0 -0 -0
-0 -0 -1 -0 -2 -4 -1 -52 -0 -2 -18 -1 -9 -17 -0 -0 -0 -0 -0 -1 -0 -0 -0 -0 -0 -0 -0 -0 -0 -0 -0 -0 -0 -0 -0 -0 -0 -0 -0 -0 -1 -0 -0 -0
-0 -0 -0 -0 -0 -0 -4 -19 -1 -3 -1 -6 -35 -0 -1 -3 -0 -1 -0 -0 -0 -0 -0 -0 -0 -0 -0 -0 -0 -0 -0 -0 -0 -0 -0 -1 -0 -0 -0 -0 -0 -0 -0 -0
Wind_Speed
10 11 12 16 19 19 19 21 22 22 23 23 24 24 25 22 22 20 16 14 16 19 18 18 13 13 19 18 14 22 23 21 17 14 15 12 13 12 11 11 13 17 14 13
11 12 15 12 14 15 18 20 21 21 22 21 22 25 24 23 23 21 21 20 19 21 22 20 15 12 14 13 11 22 25 24 20 16 15 11 12 11 11 9 12 15 16 15
12 15 18 18 13 16 18 19 19 22 23 25 23 23 21 25 25 23 22 21 21 20 23 24 20 16 14 15 9 19 24 25 22 22 14 13 11 9 11 11 11 14 18 17
11 15 19 19 17 18 18 18 18 20 19 17 20 17 23 24 22 21 24 26 24 25 23 21 24 22 14 10 9 7 23 24 22 23 19 21 15 15 13 13 11 13 19 18
14 18 17 17 19 18 14 21 21 24 20 22 21 14 16 20 22 22 20 20 19 21 25 24 26 24 21 17 12 10 19 23 24 23 21 17 18 12 12 12 16 14 15 17
14 18 13 18 15 20 14 13 21 23 17 16 22 18 17 11 17 20 20 20 22 21 22 23 23 23 22 18 14 16 17 19 22 22 23 23 22 19 16 15 13 13 13 13
20 6 5 12 16 14 17 5 7 6 8 10 13 9 5 13 18 18 18 18 17 18 19 19 21 17 19 23 20 13 17 20 21 23 23 23 23 24 20 19 15 16 13 12
10 10 4 16 17 21 18 14 4 8 7 16 17 8 6 12 21 22 22 20 19 17 16 18 20 20 20 22 21 16 18 20 21 24 25 23 22 16 17 17 14 14 14 16
10 10 27 20 17 13 14 12 16 12 17 16 9 10 17 15 20 20 22 21 21 17 19 21 23 21 22 22 25 23 16 25 23 24 21 24 23 23 19 19 17 15 16 14
9 21 15 16 22 17 9 12 7 3 7 7 10 9 4 17 20 19 18 21 23 21 20 20 21 23 22 26 24 25 18 16 26 21 21 19 23 25 18 19 17 18 17 18
13 7 13 18 16 18 16 12 5 4 7 5 7 5 1 12 13 19 21 19 20 19 20 20 19 22 26 27 17 20 19 17 13 20 18 21 22 22 20 16 18 17 17 18
5 4 11 22 22 21 8 9 9 5 9 9 11 15 15 20 17 16 18 19 19 19 18 19 20 23 23 26 15 17 18 20 11 18 18 15 18 19 19 19 17 16 17 17
8 4 14 14 13 10 6 10 4 6 9 12 13 13 17 23 18 18 17 19 16 14 17 18 18 21 20 20 18 19 20 22 22 13 18 17 16 19 19 20 20 18 16 17
9 14 13 14 15 17 20 18 15 10 7 14 15 23 26 21 18 21 17 16 14 13 14 15 16 20 17 17 18 19 20 20 21 19 15 11 18 20 20 20 19 20 19 18
8 7 10 15 18 21 22 21 21 17 16 16 21 23 23 17 16 15 18 16 16 12 11 14 16 16 19 19 17 16 18 20 20 18 16 13 12 14 17 16 17 18 19 18
3 7 12 21 20 21 23 23 24 23 24 22 23 24 12 15 13 15 13 15 13 15 11 8 13 17 19 20 18 18 18 18 18 18 17 17 15 16 10 16 16 17 18 20
14 11 11 18 17 19 13 17 15 17 16 19 16 10 14 10 15 12 12 12 13 13 10 10 10 9 11 16 17 18 17 17 18 17 17 17 15 14 13 14 15 17 18 17
15 14 10 13 17 9 17 8 14 7 5 9 7 5 12 12 13 11 11 12 14 13 12 10 3 3 6 8 12 14 16 16 17 18 18 18 18 16 15 14 11 12 15 16
16 12 4 5 10 17 12 11 4 3 7 12 11 14 12 16 11 0 10 12 12 14 8 9 10 4 2 8 10 10 12 14 15 17 18 18 18 17 16 15 13 12 13 10
11 10 6 10 12 8 4 9 22 13 3 15 16 11 13 12 9 7 14 16 13 13 9 10 11 11 5 6 9 13 11 12 14 15 15 15 16 16 15 15 16 13 11 10
4 4 9 10 9 9 11 16 18 11 3 10 13 12 11 7 2 7 11 14 14 12 11 10 10 10 11 9 7 6 9 11 12 14 15 13 14 15 15 13 13 14 12 11
9 8 8 6 6 8 11 17 11 11 11 8 12 13 12 8 4 3 10 14 14 13 12 13 11 10 11 11 9 10 9 8 10 12 13 14 13 10 11 14 11 12 12 10
11 9 8 6 8 18 17 16 12 12 14 7 10 14 15 14 10 8 10 12 14 13 12 11 10 11 9 11 11 11 10 11 12 11 13 14 15 11 11 12 12 9 9 7
15 15 11 13 16 16 16 16 13 5 11 13 12 13 16 14 14 12 11 11 14 12 11 11 11 11 11 11 12 11 11 11 11 10 10 11 12 14 12 8 7 8 8 8
12 16 16 18 17 18 15 7 11 11 14 14 10 12 14 16 15 13 13 13 12 12 12 10 10 10 11 11 11 12 13 11 11 12 9 9 10 12 11 9 7 8 6 5
14 17 12 13 17 16 10 14 14 12 9 9 12 12 12 14 11 11 10 11 11 12 12 11 11 12 12 12 11 12 12 12 12 11 9 5 6 8 10 10 12 5 7 13
Wind_Direction
329 293 286 332 335 325 317 306 292 290 294 293 289 285 287 293 297 295 279 266 266 279 278 267 235 221 230 246 186 175 177 178 170 182 193 194 200 186 190 188 178 173 185 196
315 312 313 309 307 303 292 285 283 286 285 275 273 274 277 278 279 279 279 279 274 277 285 283 270 250 240 247 218 182 179 180 177 182 191 205 197 194 194 188 185 173 181 185
309 299 299 288 298 289 285 290 294 293 297 293 292 283 275 273 278 281 279 278 276 265 269 277 279 272 235 224 222 187 181 182 182 181 188 199 193 207 189 202 184 178 180 185
304 315 313 310 294 286 296 303 295 293 293 287 297 297 290 289 282 263 240 238 247 249 259 268 272 274 271 287 210 229 183 181 185 180 189 193 203 198 200 196 194 183 182 189
295 297 291 282 290 300 305 324 320 295 286 286 276 275 281 278 271 263 256 259 262 236 239 240 261 270 270 274 292 214 187 180 183 184 187 194 203 206 203 194 196 186 184 189
313 315 341 308 328 308 299 346 329 291 277 269 268 261 265 304 2 14 15 21 18 6 358 346 239 247 268 268 267 282 188 183 180 187 187 195 203 210 201 194 193 190 186 189
321 329 53 22 325 304 303 234 292 266 267 277 331 322 35 355 1 358 1 5 7 2 355 346 337 344 312 248 262 273 204 188 178 188 192 196 203 206 218 199 191 187 192 192
340 321 18 350 305 305 298 299 306 309 332 304 307 269 84 9 351 355 359 358 355 355 351 344 334 331 331 325 273 241 223 196 186 186 195 201 204 213 214 205 191 192 199 204
309 301 321 316 315 334 307 308 324 293 284 274 271 266 54 9 349 354 359 348 350 357 351 343 337 333 329 327 314 306 248 195 199 189 190 196 206 215 209 215 193 197 197 198
303 302 311 314 327 308 319 313 328 318 293 298 307 2 7 12 349 14 348 2 347 350 346 344 335 333 330 323 306 299 283 249 192 199 192 197 200 211 214 210 204 197 199 199
319 309 303 317 320 312 314 330 341 280 261 298 324 290 148 26 3 1 355 358 339 351 345 338 336 336 327 319 306 311 298 241 226 194 204 193 205 207 210 213 215 205 199 200
76 230 297 310 304 301 356 63 20 340 346 305 281 277 303 351 344 354 358 354 345 350 344 340 342 340 333 322 327 331 329 335 217 196 200 203 199 202 206 213 212 215 206 202
347 298 311 303 318 58 5 319 206 235 274 277 289 293 320 315 346 353 7 343 357 347 354 351 355 341 329 341 353 4 359 350 350 318 192 204 203 206 208 213 213 210 213 208
246 267 274 286 292 304 294 288 283 259 265 283 278 297 295 312 340 342 358 356 350 352 350 353 351 340 334 348 358 4 0 355 347 339 349 238 198 203 207 208 208 214 210 210
282 260 273 277 282 283 285 285 282 270 251 243 275 281 285 309 340 335 358 350 335 340 356 353 346 337 349 352 0 3 3 358 353 353 357 351 330 242 206 210 204 209 216 214
253 269 286 285 285 283 283 281 277 274 271 269 262 271 313 330 340 359 353 356 8 8 351 339 336 4 349 358 4 3 1 1 356 359 4 359 342 344 265 215 213 214 212 216
282 275 284 280 297 305 291 276 278 281 290 268 264 326 304 346 355 353 350 334 359 350 345 1 341 332 348 353 359 1 357 357 2 358 3 2 3 340 339 341 241 216 213 209
253 264 273 283 287 290 317 336 358 326 35 1 326 295 323 8 355 43 359 348 340 335 351 344 359 311 300 334 355 352 357 358 359 358 360 357 0 359 342 331 330 317 217 206
229 244 270 272 303 304 339 358 335 299 335 344 338 345 352 8 344 359 348 340 326 313 323 347 339 280 240 357 348 352 2 353 358 356 354 353 349 353 358 348 325 328 329 256
241 225 242 287 294 291 168 300 284 307 295 324 316 350 4 2 358 347 335 323 326 316 348 347 347 338 42 54 22 346 358 348 351 352 342 345 344 346 346 353 343 333 319 299
247 246 258 265 269 270 19 340 330 346 301 270 301 344 348 356 314 311 317 322 315 345 348 356 349 2 6 7 23 345 339 353 344 336 343 336 346 341 341 343 351 346 342 344
257 254 256 255 243 257 6 317 343 326 326 13 307 345 327 329 334 291 311 311 321 341 353 2 350 359 359 2 354 354 355 7 339 336 326 340 341 330 344 341 348 349 353 2
276 275 276 243 283 315 311 288 304 337 331 327 326 332 321 310 318 324 323 318 325 346 357 351 351 348 355 355 348 354 356 5 348 340 337 336 329 347 344 346 346 343 354 357
287 284 276 268 271 277 297 301 327 329 285 342 354 335 328 338 322 328 325 327 326 343 352 339 346 346 346 356 348 348 359 356 337 335 338 329 337 338 339 335 343 339 346 344
287 297 289 286 296 296 299 2 269 320 333 331 350 337 332 333 333 337 331 334 330 340 336 339 344 344 350 347 344 346 352 350 340 329 338 338 347 329 323 335 335 324 337 308
269 271 267 273 275 283 268 267 307 320 338 333 328 327 321 317 319 322 323 317 342 332 327 341 342 336 344 338 345 346 348 345 339 331 334 322 336 332 346 333 322 295 259 291